sat.trackr.live / text

‹ back to catalog

STARLINK-32003

NORAD 60097 · 2024-117G

PAYLOAD ACTIVE UNKNOWN

§ Identity

Operator
Country
US
Launch date
2024-06-23
Launch site
AFETR
Launch vehicle
Mass (kg)
RCS (m²)

Purposes: comms

External: N2YO · Heavens-Above · Gunter

§ Orbital elements

Epoch: 2026-05-25T00:17:59.003808Z

Period
94.11 min
Inclination
53.1598°
Eccentricity
0.0001120
Mean motion
15.30187285 rev/d
Perigee alt
474.5 km
Apogee alt
476.0 km
Semi-major
6,853.4 km
B*
1.0624e-4
RAAN
42.4822°
Arg perigee
93.6280°
Mean anomaly
266.4848°
Rev number
10,857

§ Raw data

STARLINK-320031 60097U 24117G   26145.01248847  .00002787  00000+0  10624-3 0  99982 60097  53.1598  42.4822 0001120  93.6280 266.4848 15.30187285108578

JSON: /api/v1/satellites/60097 · /tle

For live sub-satellite position, see the globe view (requires WebGL).

§ Visibility from observer

Set your observer location to see the next 7 days of passes ≥ 10°. The values pass through the URL so the page stays shareable.

No JS? Fill the form by hand. The geolocation button needs JavaScript.